Simultaneous Nadir Overpasses (SNOs) Predictions

Prediction of SNOs between AURA and NPP Satellite Orbit:

Table of predicted SNOs for the next 14.0 days since TLE Epoch: 1/9/2015
Index Date (AURA) Time (AURA) Lat,Lon (AURA) SZA (AURA ) Date (NPP) Time (NPP) Lat,Lon (NPP) SZA (NPP ) Distance(km) Time Diff (sec)
1 01/11/2015 15:02:29 77.70,-158.25 116.45 01/11/2015 15:02:04 77.69,-158.37 116.49 2.89 25
2 01/11/2015 15:51:37 -78.54, 13.38 64.59 01/11/2015 15:52:28 -78.54, 13.47 64.65 2.20 51
3 01/14/2015 07:19:10 77.96, -41.27 115.74 01/14/2015 07:18:46 77.97, -41.20 115.75 1.66 24
4 01/14/2015 08:08:25 -78.50, 128.99 64.93 01/14/2015 08:09:18 -78.50, 129.00 64.98 0.29 53
5 01/16/2015 23:36:08 77.88, 74.11 115.41 01/16/2015 23:35:38 77.87, 74.10 115.44 0.30 30
6 01/17/2015 00:25:24 -78.38,-115.86 65.22 01/17/2015 00:26:11 -78.37,-115.95 65.24 2.22 47
7 01/19/2015 15:53:17 77.65,-171.12 115.19 01/19/2015 15:52:33 77.65,-171.23 115.25 2.61 44
8 01/19/2015 16:42:27 -78.43, 0.14 65.77 01/19/2015 16:42:59 -78.43, 0.18 65.81 1.04 32
9 01/22/2015 08:10:29 77.66, -55.40 114.65 01/22/2015 08:09:22 77.66, -55.37 114.70 0.79 67




NCC Satellite Simultaneous Nadir Overpasses (SNOs) Prediction Service
